Powrót do katalogu

STARLINK-31887

AktywnyŁącznośćVLEO
NORAD 59839·PAYLOAD·🇺🇸 United States

Wystrzelony May 23, 2024 z Cape Canaveral Space Force Station

Loading…

Następne Przeloty (najbliższe 24 godziny)

TLE

ŚwieżeSource: CelesTrak SupGP

Epoka: Sep 15, 2026, 01:46 UTC

1 59839C 24097E   26258.07409722  .00019756  00000+0  71548-3 0  2583
2 59839  43.0014 285.1699 0001232 262.1596 202.4824 15.27572161    17

Śledź STARLINK-31887 w czasie rzeczywistym z AllMySat

Download on the App Store